Home > Weather > Carson City > Past weeks

Flag for USA Past Weather in Carson City, Nevada, USA — Yesterday and Last 2 Weeks

Now
79 °F

Clear.


Feels Like: 78 °F
Forecast: 60 / 98 °F
Wind: 3 mph from West

Location: Reno Tahoe International Airport

Current Time: Jul 28, 2016 at 1:37:20 AM

Latest Report: Jul 28, 2016 at 12:55 AM


Visibility: 10 mi

Pressure: 29.91 "Hg (25.42 "Hg at 1425m altitude)

Humidity: 23%

Dew Point: 38 °F

Location of Carson CityLocation

Past Weather in Carson City — Graph

°F

Carson City Temperature Yesterday

Maximum temperature yesterday: 102 °F (at 4:55 PM)
Minimum temperature yesterday: 61 °F (at 5:55 AM)
Average temperature yesterday: 82 °F

High & Low Weather Summary for the Past Weeks

 TemperatureHumidityPressure
High102 °F (Jul 27, 4:55 PM)47% (Jul 21, 5:55 AM)30.18 "Hg (Jul 21, 5:55 AM)
Low54 °F (Jul 19, 4:55 AM)5% (Jul 14, 2:55 PM)29.75 "Hg (Jul 16, 3:55 PM)
Average77 °F20%29.93 "Hg
* Reported Jul 12 11:55 PM — Jul 27 11:55 PM, Carson City, Weather by CustomWeather, © 2016

Note: Actual official high and low records may vary slightly from our data, if they occured in-between our weather recording intervals... More about our weather records

Advertising

Carson City Weather History for the Previous 24 Hours

Scroll right to see more
 ConditionsComfort  
Time TempWeatherWind HumidityBarometerVisibility
11:55 PM
Wed, Jul 27
81 °FClear.No wind22%29.93 "Hg10 mi
10:55 PM85 °FClear.8 mph19%29.92 "Hg10 mi
9:55 PM87 °FPassing clouds.13 mph18%29.92 "Hg10 mi
8:55 PM89 °FPassing clouds.6 mph17%29.91 "Hg10 mi
7:55 PM93 °FPassing clouds.12 mph14%29.89 "Hg10 mi
6:55 PM96 °FPassing clouds.16 mph11%29.87 "Hg10 mi
5:55 PM99 °FPassing clouds.16 mph10%29.86 "Hg10 mi
4:55 PM102 °FPassing clouds.14 mph8%29.85 "Hg10 mi
3:55 PM101 °FPassing clouds.13 mph8%29.86 "Hg10 mi
2:55 PM100 °FPassing clouds.No wind7%29.88 "Hg10 mi
1:55 PM99 °FPassing clouds.5 mph7%29.89 "Hg10 mi
12:55 PM98 °FPassing clouds.3 mph5%29.90 "Hg10 mi
11:55 AM93 °FSunny.5 mph9%29.93 "Hg10 mi
10:55 AM85 °FSunny.No wind14%29.96 "Hg10 mi
9:55 AM79 °FSunny.No wind17%29.98 "Hg10 mi
8:55 AM73 °FSunny.No wind21%29.99 "Hg10 mi
7:55 AM66 °FSunny.No wind28%29.99 "Hg10 mi
6:55 AM63 °FSunny.3 mph31%29.98 "Hg10 mi
5:55 AM61 °FClear.No wind38%29.97 "Hg10 mi
4:55 AM62 °FClear.3 mph31%29.96 "Hg10 mi
3:55 AM63 °FClear.3 mph28%29.95 "Hg10 mi
2:55 AM64 °FClear.No wind29%29.95 "Hg10 mi
1:55 AM67 °FClear.No wind25%29.94 "Hg10 mi
Weather by CustomWeather, © 2016

See weather overviewHow to use our weather pages